Hourly Data Report for October 04, 2015

All times are specified in Local Standard Time (LST). Add 1 hour to adjust for Daylight Saving Time where and when it is observed.

KITCHENER/WATERLOO
ONTARIO

43°27'39.000" N
80°22'43.000" W
321.60 m
6144239
71368
YKF

Download Data

Hourly Data (October 2015)
Hourly Data Report for October 4, 2015
Temp Definition
°C
Dew Point Temp Definition
°C
Rel Hum Definition
%
Wind Dir Definition
10's deg

Wind Spd Definition
km/h
Visibility Definition
km
Stn Press Definition
kPa
Hmdx Definition


Wind Chill Definition


Weather Definition


TIME
00:00 Legend Double Dagger 7.9 6.9 93 9 32 11.3 98.74     Rain
01:00 Legend Double Dagger 8.0 7.3 95 10 30 14.5 98.72     Rain
02:00 Legend Double Dagger 8.2 7.5 95 9 24 11.3 98.71     LegendNANA
03:00 Legend Double Dagger 8.3 7.7 96 9 28 16.1 98.69     LegendNANA
04:00 Legend Double Dagger 8.4 8.0 97 9 26 16.1 98.67     LegendNANA
05:00 Legend Double Dagger 8.5 7.9 96 9 22 16.1 98.68     LegendNANA
06:00 Legend Double Dagger 8.5 7.9 96 9 30 16.1 98.70     LegendNANA
07:00 Legend Double Dagger 8.8 7.7 93 9 18 16.1 98.73     LegendNANA
08:00 Legend Double Dagger 9.5 8.1 91 9 21 16.1 98.76     LegendNANA
09:00 Legend Double Dagger 10.2 8.8 91 9 17 16.1 98.79     LegendNANA
10:00 Legend Double Dagger 11.2 9.0 86 9 18 16.1 98.76     LegendNANA
11:00 Legend Double Dagger 11.5 9.1 85 8 17 16.1 98.76     LegendNANA
12:00 Legend Double Dagger 12.6 9.7 82 6 17 16.1 98.68     LegendNANA
13:00 Legend Double Dagger 13.7 9.5 75 8 21 16.1 98.64     LegendNANA
14:00 Legend Double Dagger 13.9 9.5 75 8 18 16.1 98.60     LegendNANA
15:00 Legend Double Dagger 13.6 9.5 76 9 11 16.1 98.59     LegendNANA
16:00 Legend Double Dagger 12.7 9.6 81 10 15 16.1 98.57     LegendNANA
17:00 Legend Double Dagger 12.2 9.1 81 7 17 16.1 98.57     LegendNANA
18:00 Legend Double Dagger 11.4 9.0 85 7 11 16.1 98.56     LegendNANA
19:00 Legend Double Dagger 10.9 8.5 85 9 11 16.1 98.59     LegendNANA
20:00 Legend Double Dagger 10.7 8.5 86 6 9 16.1 98.58     LegendNANA
21:00 Legend Double Dagger 10.7 8.5 86 9 8 16.1 98.58     LegendNANA
22:00 Legend Double Dagger 9.8 8.4 91 6 4 16.1 98.56     LegendNANA
23:00 Legend Double Dagger 10.0 8.6 91 3 5 16.1 98.53     LegendNANA

Notes on Data Quality.

Legend

  • E = Estimated
  • M = Missing
  • NA = Not Available
  • ‡ = Partner data that is not subject to review by the National Climate Archives
Date modified: